Preview of NWS' New Version of Forecast
This preview is not operational and should not be used for support decisions.

Regional Weather Roundup (RWR)

Issued by National Weather Service (NWS)

                            
000
ASUS43 KBIS 221310
RWRND 

NORTH DAKOTA REGIONAL WEATHER ROUNDUP
NATIONAL WEATHER SERVICE BISMARCK ND
800 AM CDT MON JUL 22 2019

NOTE: "FAIR" INDICATES FEW OR NO CLOUDS BELOW 12,000 FEET WITH NO
SIGNIFICANT WEATHER AND/OR OBSTRUCTIONS TO VISIBILITY.


NDZ001>003-009>011-017-221400-
NORTHWEST NORTH DAKOTA
  
CITY           SKY/WX    TMP DP  RH WIND       PRES   REMARKS
WILLISTON      SUNNY     59  54  83 CALM      30.32R                  
MINOT          SUNNY     63  57  81 SW3       30.31R                  
MINOT AFB      SUNNY     59  57  93 CALM      30.30R                  
$$
 
NDZ018>021-031>035-040>046-221400-
SOUTHWEST NORTH DAKOTA
  
CITY           SKY/WX    TMP DP  RH WIND       PRES   REMARKS
BISMARCK       SUNNY     56  54  93 E5        30.34R                  
DICKINSON      SUNNY     56  53  90 S3        30.33R                  
GARRISON         N/A     59  57  93 CALM      30.32R                  
HETTINGER ARPT SUNNY     56  54  93 CALM      30.36R                  
$$
 
NDZ004>008-012>016-024-026-027-054-221400-
NORTHEAST NORTH DAKOTA
  
CITY           SKY/WX    TMP DP  RH WIND       PRES   REMARKS
GRAND FORKS    SUNNY     58  51  78 CALM      30.29R                  
GRND FRKS AFB  SUNNY     62  57  83 W5        30.29S                  
DEVILS LAKE    SUNNY     61  57  87 CALM      30.33R                  
$$
 
NDZ022-023-025-028>030-036>039-047>053-221400-
SOUTHEAST NORTH DAKOTA
  
CITY           SKY/WX    TMP DP  RH WIND       PRES   REMARKS
FARGO          SUNNY     60  53  77 N3        30.30R                  
JAMESTOWN      MOSUNNY   61  60  97 CALM      30.32R                  
$$